Ahoskie, NC

1:23 AM EDT on September 20, 2017 (GMT -0400)
Tri County

Weather History for KASJ - March, 2013

Change the Weather History Date:

Friday, March 1, 2013

  Actual Average (KEMV) Record (KEMV)
Temperature  
Mean Temperature 38 °F -  
Max Temperature 49 °F 54 °F 80 °F (2017)
Min Temperature 30 °F 28 °F 14 °F (2002)
Degree Days  
Heating Degree Days 26    
Moisture  
Dew Point 29 °F    
Average Humidity 66    
Maximum Humidity 87    
Minimum Humidity 43    
Precipitation  
Precipitation 0.00 in - - ()
Sea Level Pressure  
Sea Level Pressure 29.85 in    
Wind  
Wind Speed 1 mph (NW)    
Max Wind Speed 7 mph    
Max Gust Speed -    
Visibility 10 miles    
Events      
Averages and records for this station are not official NWS values.
T = Trace of Precipitation, MM = Missing Value Source: NWS Daily Summary

Daily Weather History Graph

Daily Weather History Graph

Search for Another Location

Airport or City:

Trip Planner

Search our weather history database for the weather conditions in past years. The results will help you decide how hot, cold, wet, or windy it might be!

Date:

Astronomy

Mar. 01, 2013 Rise Set
Actual Time 6:38 AM EST 6:03 PM EST
Civil Twilight 6:12 AM EST 6:29 PM EST
Nautical Twilight 5:43 AM EST 6:59 PM EST
Astronomical Twilight 5:13 AM EST 7:29 PM EST
Moon 10:25 PM EST (3/1) 8:32 AM EST (3/1)
Length of Visible Light 12h 16m
Length of Day
11h 24m
Waning Gibbous, 83% of the Moon is Illuminated
Mar 1
Waning Gibbous
Mar 4
Last Quarter
Mar 11
New
Mar 19
First Quarter
Mar 27
Full

Hourly Weather History & Observations

Time (EST) Temp. Windchill Dew Point Humidity Pressure Visibility Wind Dir Wind Speed Gust Speed Precip Events Conditions
12:15 AM 37.6 °F 35.1 °F 26.6 °F 65% 29.82 in 10.0 mi West 3.5 mph - N/A   Clear
12:35 AM 37.0 °F - 26.8 °F 66% 29.82 in 10.0 mi Calm Calm - N/A   Clear
12:55 AM 36.3 °F - 27.1 °F 69% 29.81 in 10.0 mi Calm Calm - N/A   Clear
1:15 AM 36.5 °F - 26.6 °F 67% 29.82 in 10.0 mi Calm Calm - N/A   Clear
1:35 AM 35.1 °F - 27.7 °F 74% 29.82 in 10.0 mi Calm Calm - N/A   Clear
1:55 AM 35.1 °F - 28.2 °F 76% 29.83 in 10.0 mi Calm Calm - N/A   Clear
2:15 AM 35.1 °F - 28.2 °F 76% 29.82 in 10.0 mi Calm Calm - N/A   Clear
2:35 AM 35.1 °F - 28.2 °F 76% 29.82 in 10.0 mi Calm Calm - N/A   Clear
2:55 AM 32.5 °F - 27.0 °F 80% 29.81 in 10.0 mi Calm Calm - N/A   Clear
3:35 AM 30.2 °F - 25.7 °F 83% 29.81 in 10.0 mi Calm Calm - N/A   Clear
3:55 AM 30.7 °F - 26.2 °F 83% 29.81 in 10.0 mi Calm Calm - N/A   Clear
4:15 AM 30.2 °F - 26.1 °F 85% 29.81 in 10.0 mi Calm Calm - N/A   Clear
4:35 AM 30.2 °F - 26.6 °F 86% 29.83 in 10.0 mi Calm Calm - N/A   Clear
4:55 AM 30.2 °F - 26.6 °F 86% 29.83 in 10.0 mi Calm Calm - N/A   Clear
5:15 AM 30.2 °F - 26.6 °F 86% 29.83 in 10.0 mi Calm Calm - N/A   Clear
5:35 AM 30.2 °F - 26.6 °F 86% 29.84 in 10.0 mi Calm Calm - N/A   Clear
5:55 AM 30.2 °F - 26.8 °F 87% 29.84 in 10.0 mi Calm Calm - N/A   Clear
6:15 AM 30.2 °F - 26.6 °F 86% 29.84 in 10.0 mi Calm Calm - N/A   Clear
6:35 AM 30.2 °F - 26.4 °F 86% 29.85 in 10.0 mi Calm Calm - N/A   Scattered Clouds
7:15 AM 32.5 °F - 27.9 °F 83% 29.85 in 10.0 mi Calm Calm - N/A   Mostly Cloudy
7:35 AM 35.1 °F - 29.7 °F 81% 29.86 in 10.0 mi Calm Calm - N/A   Scattered Clouds
8:15 AM 37.8 °F 35.3 °F 30.4 °F 75% 29.87 in 10.0 mi WNW 3.5 mph - N/A   Scattered Clouds
8:35 AM 40.1 °F 38.0 °F 30.2 °F 68% 29.87 in 10.0 mi NW 3.5 mph - N/A   Scattered Clouds
9:15 AM 43.7 °F 42.1 °F 31.5 °F 62% 29.86 in 10.0 mi NW 3.5 mph - N/A   Mostly Cloudy
9:35 AM 45.1 °F 43.7 °F 32.0 °F 60% 29.86 in 10.0 mi WNW 3.5 mph - N/A   Mostly Cloudy
10:15 AM 45.1 °F 42.0 °F 28.6 °F 52% 29.86 in 10.0 mi NNW 5.8 mph - N/A   Overcast
10:35 AM 45.1 °F - 28.0 °F 51% 29.86 in 10.0 mi Calm Calm - N/A   Overcast
10:55 AM 47.7 °F - 28.9 °F 48% 29.86 in 10.0 mi NNW 5.8 mph - N/A   Mostly Cloudy
11:15 AM 46.4 °F 44.3 °F 25.7 °F 44% 29.86 in 10.0 mi NW 4.6 mph - N/A   Mostly Cloudy
11:35 AM 46.0 °F 44.8 °F 24.8 °F 43% 29.86 in 10.0 mi NNW 3.5 mph - N/A   Overcast
12:15 PM 46.0 °F 43.1 °F 25.0 °F 44% 29.85 in 10.0 mi NW 5.8 mph - N/A   Overcast
12:35 PM 45.1 °F 43.7 °F 24.1 °F 44% 29.85 in 10.0 mi West 3.5 mph - N/A   Overcast
12:55 PM 45.1 °F 42.8 °F 24.3 °F 44% 29.84 in 10.0 mi NNW 4.6 mph - N/A   Overcast
1:15 PM 46.6 °F - 25.0 °F 43% 29.83 in 10.0 mi NNW 6.9 mph - N/A   Overcast
1:35 PM 46.4 °F - 25.5 °F 44% 29.83 in 10.0 mi Calm Calm - N/A   Overcast
1:55 PM 46.4 °F 44.3 °F 25.7 °F 44% 29.82 in 10.0 mi NW 4.6 mph - N/A   Overcast
2:15 PM 46.4 °F 45.2 °F 25.2 °F 43% 29.83 in 10.0 mi West 3.5 mph - N/A   Overcast
2:35 PM 45.9 °F - 25.5 °F 45% 29.82 in 10.0 mi Calm Calm - N/A   Overcast
2:55 PM 45.1 °F 43.7 °F 26.1 °F 47% 29.82 in 10.0 mi WNW 3.5 mph - N/A   Overcast
3:15 PM 45.1 °F - 26.8 °F 49% 29.83 in 10.0 mi Calm Calm - N/A   Overcast
3:35 PM 45.1 °F - 28.6 °F 52% 29.83 in 10.0 mi Calm Calm - N/A   Overcast
3:55 PM 45.1 °F - 27.1 °F 49% 29.83 in 10.0 mi Calm Calm - N/A   Overcast
4:15 PM 45.1 °F 43.7 °F 28.4 °F 52% 29.83 in 10.0 mi NW 3.5 mph - N/A   Overcast
4:35 PM 45.1 °F - 28.9 °F 53% 29.84 in 10.0 mi Calm Calm - N/A   Overcast
5:15 PM 45.1 °F - 30.6 °F 57% 29.85 in 10.0 mi Calm Calm - N/A   Overcast
5:35 PM 45.1 °F - 30.9 °F 58% 29.85 in 10.0 mi Calm Calm - N/A   Overcast
5:55 PM 45.1 °F - 31.8 °F 60% 29.86 in 10.0 mi Calm Calm - N/A   Overcast
6:15 PM 42.8 °F - 30.7 °F 62% 29.86 in 10.0 mi Calm Calm - N/A   Overcast
6:35 PM 42.8 °F - 30.7 °F 62% 29.87 in 10.0 mi Calm Calm - N/A   Overcast
6:55 PM 42.8 °F - 31.6 °F 65% 29.88 in 10.0 mi Calm Calm - N/A   Overcast
7:15 PM 42.8 °F - 31.5 °F 64% 29.88 in 10.0 mi Calm Calm - N/A   Overcast
7:35 PM 42.8 °F - 31.8 °F 65% 29.89 in 10.0 mi Calm Calm - N/A   Overcast
7:55 PM 42.8 °F - 31.8 °F 65% 29.89 in 10.0 mi Calm Calm - N/A   Overcast
8:15 PM 41.4 °F - 31.1 °F 67% 29.89 in 10.0 mi Calm Calm - N/A   Overcast
8:35 PM 40.1 °F - 30.2 °F 68% 29.90 in 10.0 mi Calm Calm - N/A   Overcast
8:55 PM 39.2 °F - 31.6 °F 74% 29.90 in 10.0 mi Calm Calm - N/A   Overcast
9:15 PM 39.0 °F - 32.0 °F 76% 29.90 in 10.0 mi Calm Calm - N/A   Overcast
9:35 PM 38.8 °F - 32.0 °F 76% 29.90 in 10.0 mi Calm Calm - N/A   Overcast
9:55 PM 38.3 °F - 32.4 °F 79% 29.90 in 10.0 mi Calm Calm - N/A   Overcast
10:15 PM 38.1 °F - 32.7 °F 81% 29.90 in 10.0 mi Calm Calm - N/A   Overcast
10:55 PM 38.7 °F - 32.0 °F 77% 29.90 in 10.0 mi Calm Calm - N/A   Overcast
11:15 PM 38.8 °F - 31.6 °F 75% 29.89 in 10.0 mi Calm Calm - N/A   Overcast
11:35 PM 38.7 °F - 31.5 °F 75% 29.89 in 10.0 mi Calm Calm - N/A   Overcast
11:55 PM 38.3 °F - 31.3 °F 76% 29.89 in 10.0 mi Calm Calm - N/A   Overcast